This demonstration page uses our WeatherBlox Daily Observations layout. Learn more.

Left ArrowRight Arrow

38.80484, -77.04692

Hourly Observations for May 4, 2021

Temp ( °F °C ) Dew Point ( °F °C ) Humidity (%) Winds ( mph kmh ) Pressure ( in mb ) Visibility ( mi km ) Precip ( " mm )
12:30 am 00:30 Cloudy with Light Rain 69 20.6 65 18.3 87 87 S 10 17 29.69 1005 7 11.26538 0.01 0.254
12:52 am 00:52 Partly Cloudy 69 20.6 65 18.3 87 87 SSW 10 17 29.68 1005 10 16.0934 0.02 0.508
1:52 am 01:52 Mostly Cloudy 69 20.6 65 18.3 87 87 SW 7 11 29.69 1006 10 16.0934 0 0
1:59 am 01:59 Mostly Cloudy 68 20 65 18.3 90 90 SW 7 11 29.7 1006 10 16.0934 0 0
2:52 am 02:52 Cloudy with Light Rain 69 20.6 65 18.3 87 87 SW 7 11 29.69 1006 10 16.0934 0.001 0.001
3:52 am 03:52 Cloudy 69 20.6 65 18.3 87 87 SW 6 9 29.7 1006 10 16.0934 0.001 0.001
4:52 am 04:52 Mostly Cloudy with Light Rain 68 20 65 18.3 90 90 S 6 9 29.71 1006 10 16.0934 0.001 0.001
5:52 am 05:52 Mostly Cloudy 67 19.4 64 17.8 91 91 S 8 13 29.72 1006 10 16.0934 0.01 0.254
6:52 am 06:52 Mostly Sunny 67 19.4 64 17.8 91 91 SSW 8 13 29.74 1007 10 16.0934 0 0
7:52 am 07:52 Partly Cloudy 70 21.1 65 18.3 84 84 SW 8 13 29.76 1008 10 16.0934 0 0
8:52 am 08:52 Partly Cloudy 73 22.8 65 18.3 76 76 SSW 7 11 29.78 1009 10 16.0934 0 0
9:52 am 09:52 Mostly Sunny 74 23.3 66 18.9 76 76 S 9 15 29.8 1009 10 16.0934 0 0
10:52 am 10:52 Partly Cloudy 77 25 66 18.9 69 69 SSE 10 17 29.78 1008 10 16.0934 0 0
11:52 am 11:52 Partly Cloudy 78 25.6 65 18.3 64 64 S 10 17 29.78 1009 10 16.0934 0 0
12:52 pm 12:52 Mostly Cloudy 83 28.3 64 17.8 53 53 S 8 13 29.77 1008 10 16.0934 0 0
1:52 pm 13:52 Mostly Cloudy 81 27.2 63 17.2 54 54 S 13 20 29.76 1008 10 16.0934 0 0
2:52 pm 14:52 Mostly Cloudy 83 28.3 64 17.8 53 53 SSE 14 22 29.75 1007 10 16.0934 0 0
3:52 pm 15:52 Cloudy 79 26.1 64 17.8 60 60 S 10 17 29.72 1007 10 16.0934 0 0
4:52 pm 16:52 Partly Cloudy 78 25.6 63 17.2 60 60 S 5 7 29.71 1006 10 16.0934 0 0
4:57 pm 16:57 Cloudy with Thunderstorms 79 26.1 62 16.7 56 56 SSW 5 7 29.72 1006 10 16.0934 0 0
5:10 pm 17:10 Cloudy with Heavy Thunderstorms 70 21.1 61 16.1 73 73 WSW 23 37 29.76 1008 3 4.82802 0.02 0.508
5:13 pm 17:13 Cloudy with Heavy Thunderstorms 69 20.6 62 16.7 78 78 W 21 33 29.76 1008 1.75 2.816345 0.09 2.286
5:30 pm 17:30 Cloudy with Thunderstorms 69 20.6 63 17.2 81 81 N 6 9 29.74 1007 3 4.82802 0.42 10.668
5:38 pm 17:38 Cloudy with Light Thunderstorms 69 20.6 63 17.2 81 81 Calm 29.74 1007 10 16.0934 0.42 10.668
5:52 pm 17:52 Cloudy with Light Thunderstorms 68 20 64 17.8 87 87 Calm 29.73 1007 8 12.87472 0.44 11.176
6:05 pm 18:05 Cloudy with Light Rain 68 20 64 17.8 87 87 SE 5 7 29.72 1006 7 11.26538 0.02 0.508
6:52 pm 18:52 Mostly Cloudy 68 20 64 17.8 87 87 SSE 12 19 29.68 1005 10 16.0934 0.03 0.762
7:52 pm 19:52 Mostly Cloudy 68 20 64 17.8 87 87 S 12 19 29.71 1006 10 16.0934 0 0
8:52 pm 20:52 Partly Cloudy 67 19.4 63 17.2 87 87 S 8 13 29.74 1007 10 16.0934 0 0
9:52 pm 21:52 Partly Cloudy 67 19.4 64 17.8 91 91 SSW 8 13 29.74 1007 10 16.0934 0 0
10:52 pm 22:52 Partly Cloudy 66 18.9 63 17.2 90 90 S 7 11 29.72 1007 10 16.0934 0 0
10:56 pm 22:56 Partly Cloudy 66 18.9 63 17.2 90 90 S 8 13 29.73 1007 10 16.0934 0 0
11:52 pm 23:52 Mostly Cloudy 66 18.9 63 17.2 90 90 SW 5 7 29.73 1007 10 16.0934 0 0

Powered by AerisWeather